Location: Eboldshausen
(51.7766°N, 10.0050°E)
Time: 17:05:13
(UTC+00:00)

Helios 1A Rocket - Pass Details

Date: 15 November 2025
Orbit: 439 x 451 km, 98.3° (Epoch: 09 December)

Event Time Altitude Azimuth Distance (km) Brightness Sun altitude
Exits shadow 17:28:48 28° 150° (SSE) 879 3.6 -18.3°
Drops below altitude 10° 17:30:42 10° 172° (S) 1,567 5.1 -18.5°
Sets 17:32:48 0° 180° (S) 2,436 6.2 -18.9°
